Watsonville, CA

1:17 AM PST on December 07, 2019 (GMT -0800)
Watsonville Municipal

Weather History for KWVI - August, 2019

Change the Weather History Date:

Tuesday, August 13, 2019

  Actual Average Record
Temperature  
Mean Temperature 67 °F 64 °F  
Max Temperature 82 °F 74 °F 82 °F (2019)
Min Temperature 52 °F 53 °F 48 °F (2000)
Degree Days  
Heating Degree Days 0    
Month to date heating degree days 6  
Since 1 June heating degree days 144  
Since 1 July heating degree days 53  
Cooling Degree Days 2    
Month to date cooling degree days 19  
Year to date cooling degree days 73  
Since 1 June cooling degree days 73  
Growing Degree Days 16 (Base 50)    
Moisture  
Dew Point 54 °F    
Average Humidity 71    
Maximum Humidity 100    
Minimum Humidity 42    
Precipitation  
Precipitation 0.00 in - 0.04 in (1991)
Month to date precipitation T  
Year to date precipitation 22.76  
Sea Level Pressure  
Sea Level Pressure 29.97 in    
Wind  
Wind Speed 3 mph (SSW)    
Max Wind Speed 12 mph    
Max Gust Speed 13 mph    
Visibility 6 miles    
Events Fog    
T = Trace of Precipitation, MM = Missing Value Source: NWS Daily Summary

Daily Weather History Graph

Daily Weather History Graph

Search for Another Location

Airport or City:

Astronomy

Aug. 13, 2019 Rise Set
Actual Time 6:22 AM PDT 8:01 PM PDT
Civil Twilight 5:54 AM PDT 8:28 PM PDT
Nautical Twilight 5:21 AM PDT 9:02 PM PDT
Astronomical Twilight 4:45 AM PDT 9:37 PM PDT
Moon 7:16 PM PDT (8/13) 4:32 AM PDT (8/13)
Length of Visible Light 14h 34m
Length of Day
13h 38m
Waxing Gibbous, 97% of the Moon is Illuminated
Aug 13
Waxing Gibbous
Aug 15
Full
Aug 23
Last Quarter
Aug 30
New
Sep 5
First Quarter

Hourly Weather History & Observations

Time (PDT) Temp. Heat Index Dew Point Humidity Pressure Visibility Wind Dir Wind Speed Gust Speed Precip Events Conditions
12:53 AM 60.1 °F - 54.0 °F 80% 29.98 in 10.0 mi Calm Calm - N/A   Clear
1:53 AM 57.9 °F - 54.0 °F 87% 29.97 in 10.0 mi Calm Calm - N/A   Clear
2:53 AM 55.0 °F - 52.0 °F 89% 29.96 in 10.0 mi Calm Calm - N/A   Clear
3:53 AM 57.0 °F - 53.1 °F 87% 29.96 in 10.0 mi Calm Calm - N/A   Clear
4:32 AM 53.1 °F - 50.0 °F 89% 29.96 in 1.5 mi SSW 3.5 mph - N/A   Partly Cloudy
4:34 AM 53.1 °F - 50.0 °F 89% 29.96 in 0.8 mi SW 3.5 mph - N/A   Mist
4:43 AM 53.1 °F - 51.1 °F 93% 29.96 in 0.2 mi Calm Calm - N/A Fog Fog
4:53 AM 54.0 °F - 52.0 °F 93% 29.96 in 0.2 mi Calm Calm - N/A Fog Fog
5:01 AM 54.0 °F - 52.0 °F 93% 29.96 in 0.2 mi Calm Calm - N/A Fog Fog
5:16 AM 52.0 °F - 51.1 °F 97% 29.96 in 1.0 mi Calm Calm - N/A   Mist
5:32 AM 53.1 °F - 51.1 °F 93% 29.96 in 0.8 mi Calm Calm - N/A   Mist
5:40 AM 53.1 °F - 51.1 °F 93% 29.96 in 1.8 mi Calm Calm - N/A   Overcast
5:43 AM 53.1 °F - 51.1 °F 93% 29.96 in 3.0 mi Calm Calm - N/A   Overcast
5:46 AM 53.1 °F - 51.1 °F 93% 29.96 in 1.8 mi Calm Calm - N/A   Overcast
5:50 AM 53.6 °F - 51.8 °F 94% 29.96 in 0.8 mi Calm Calm - N/A   Mist
5:53 AM 53.1 °F - 51.1 °F 93% 29.96 in 0.8 mi Calm Calm - N/A   Mist
6:34 AM 54.0 °F - 53.1 °F 97% 29.98 in 0.2 mi Calm Calm - N/A Fog Fog
6:44 AM 54.0 °F - 53.1 °F 97% 29.98 in 0.2 mi Calm Calm - N/A Fog Fog
6:53 AM 55.0 °F - 54.0 °F 96% 29.98 in 0.2 mi Calm Calm - N/A Fog Fog
7:08 AM 55.0 °F - 53.1 °F 93% 29.98 in 0.2 mi Calm Calm - N/A Fog Fog
7:53 AM 55.9 °F - 55.0 °F 97% 29.99 in 0.2 mi Calm Calm - N/A Fog Fog
8:36 AM 57.9 °F - 55.9 °F 93% 29.99 in 1.0 mi Calm Calm - N/A   Overcast
8:41 AM 57.9 °F - 55.9 °F 93% 30.00 in 2.0 mi Calm Calm - N/A   Overcast
8:50 AM 59.0 °F - 55.4 °F 88% 30.00 in 9.0 mi Calm Calm - N/A   Mostly Cloudy
8:53 AM 59.0 °F - 55.9 °F 90% 30.00 in 10.0 mi Calm Calm - N/A   Scattered Clouds
9:53 AM 69.1 °F - 55.9 °F 63% 30.00 in 10.0 mi Calm Calm - N/A   Clear
10:53 AM 75.0 °F - 57.9 °F 55% 30.00 in 10.0 mi Calm Calm - N/A   Clear
11:53 AM 78.1 °F - 54.0 °F 43% 30.00 in 10.0 mi SSW 8.1 mph - N/A   Clear
12:53 PM 79.0 °F - 54.0 °F 42% 29.99 in 10.0 mi SSW 9.2 mph - N/A   Clear
1:53 PM 81.0 °F 80.7 °F 55.0 °F 41% 29.98 in 10.0 mi SW 6.9 mph - N/A   Clear
2:53 PM 79.0 °F - 54.0 °F 42% 29.97 in 10.0 mi South 9.2 mph - N/A   Clear
3:53 PM 77.0 °F - 55.0 °F 47% 29.96 in 10.0 mi South 10.4 mph - N/A   Clear
4:53 PM 73.0 °F - 55.9 °F 55% 29.96 in 10.0 mi South 10.4 mph - N/A   Clear
5:53 PM 69.1 °F - 57.0 °F 65% 29.95 in 10.0 mi South 6.9 mph - N/A   Clear
6:53 PM 66.0 °F - 57.0 °F 73% 29.94 in 10.0 mi South 8.1 mph - N/A   Clear
7:53 PM 63.0 °F - 57.0 °F 81% 29.95 in 10.0 mi South 4.6 mph - N/A   Clear
8:53 PM 61.0 °F - 57.0 °F 87% 29.96 in 10.0 mi SE 3.5 mph - N/A   Clear
9:53 PM 62.1 °F - 57.0 °F 84% 29.97 in 10.0 mi Calm Calm - N/A   Clear
10:53 PM 60.1 °F - 55.9 °F 86% 29.98 in 10.0 mi Calm Calm - N/A   Clear
11:53 PM 60.1 °F - 55.0 °F 83% 29.97 in 10.0 mi Calm Calm - N/A   Clear